Location: Napier
(39.4830°S, 176.9170°E)
Time: 03:21:35
(UTC+12:00)

Cosmos 2239 Rocket - Pass Details

Date: 15 August 2020
Orbit: 955 x 990 km, 82.9° (Epoch: 19 September)

Event Time Altitude Azimuth Distance (km) Brightness Sun altitude
Rises 18:56:46 0° 184° (S) 3,706 7.5 -16.4°
Reaches altitude 10° 18:59:22 10° 180° (S) 2,747 6.8 -16.9°
Maximum altitude 19:05:34 59° 100° (E) 1,114 4.5 -18.1°
Drops below altitude 10° 19:11:39 10° 20° (NNE) 2,693 6.6 -19.3°
Sets 19:14:10 0° 16° (NNE) 3,628 7.3 -19.8°
